Showing default

MICE-1, 66684

Orbit data source: Space-Track

MICE-1, 66684 is a Greek payload satellite in SSO that was launched on Fri, 28 Nov 2025 UTC via an FALCON 9 launch vehicle from the Air Force Western Test Range (AFWTR). Payload-class satellites include a variety of spacecraft equipped with specific instruments for various scientific and technological missions. These include communications satellites like Starlink; space stations such as the ISS; scientific satellites like the Hubble; Earth observation satellites from companies like Planet Labs, Umbra, and HawkEye 360; GPS; miniature CubeSats for education and research; and military/defense satellites.

Loading next visibility...
Identifier
66684, 2025-276U
Orbit
SSO
Country
Flag of GRGR / GREC
Related business
Manufacturer
PRISMA
Mission
Operational Commercial Communications
Bus & Motor
CUBESAT 3U, Unknown motor
Mass
5 kg wet, 5 kg dry
Launch date (UTC)
2025-11-28 (9 months ago)
Launch vehicle
FALCON 9
Launch site
Air Force Western Test Range (AFWTR)
Object type
Payload
Rocket body
Debris
Shape & HBR
Box, 0.2 m
Radar Cross Section
0.035 m², Medium (>0.1 m² and < 1m²)

Expand to show TLE details & history
Last TLE update: 14 hours ago

TLE from 14 hours ago
0 MICE-1
1 66684U 25276U   26238.18522632  .00003193  00000-0  15305-3 0  9995
2 66684  97.4230 310.6495 0007098 105.7360 254.4658 15.19613844 41046
Epoch: 2026-08-26T04:26Z
TLE epoch observation values (Epoch: 2026-08-26T04:26:43.554Z)
Latitude
-0.00002°
Longitude
-90.47383°
Altitude
511.408 km
Speed
7.607 km/s
True Right ascension
20h 42m 35s
True Declination
0° 00' 00"
Sunlit
Object was in full shadow at epoch
Visualization orbit readout
Latitude
Unknown
Longitude
Unknown
Altitude
Unknown
Speed
Unknown
Apparent Right ascension
Unknown
Apparent Declination
Unknown
Sunlit
N/A
Visualization observer readout
Local Sidereal Time
09:54:08
Azimuth
Unknown
Elevation
Unknown
Doppler factor
Unknown
Orbital elements
Apogee altitude
508.859 km
Perigee altitude
499.089 km
Semi-major axis
6,882.111 km
Eccentricity
0.00071
Inclination
97.423°
RAAN
310.6495°
Arg. of periapsis
105.736°
True anomaly
254.38745°
Mean anomaly
254.4658°
Eccentric anomaly
254.42662°
Mean motion
3.80155 °/min
Orbital period
94.7 mins
BSTAR
0.00015305
Loading maneuver chart data...
Computing Atmospheric mass density...
Loading historical data...
Loading historical data...
Loading historical data...
Loading historical data...
Loading historical data...
Loading historical data...
Loading historical data...

Documentation

Showing up to 5 results
|